Tracking 20083 objects as of 8-Dec-2019
HD Live streaming from Space Station
objects crossing your sky now

SL-12 R/B(2)

Track SL-12 R/B(2) now!


NORAD ID: 19754
Int'l Code: 1989-001F
Perigee: 19,079.4 km
Apogee: 19,143.8 km
Inclination: 64.2 °
Period: 674.7 minutes
Semi major axis: 25482 km
RCS: 1.4062 m2 (large)
Launch date: January 10, 1989
Source: Commonwealth of Independent States (former USSR) (CIS)
Launch site: TYURATAM MISSILE AND SPACE COMPLEX (TTMTR)

Note: This is a ROCKET BODY
aabbcc
Your satellite tracking list
Your tracking list is empty




NASA's NSSDC Master Catalog

Two Line Element Set (TLE):
1 19754U 89001F   19340.63632767  .00000112  00000-0  00000+0 0  9994
2 19754  64.1681 152.9686 0012641 234.8927 121.7184  2.13421236240880
Source of the keplerian elements: AFSPC